Location: Tamazert
(32.6352°N, 5.2072°W)
Time: 02:28:09
(UTC+00:00)

Tiros 1 despin weight - Pass Details

Date: 10 October 2022
Orbit: 590 x 637 km, 48.2° (Epoch: 30 November)

Event Time Altitude Azimuth Distance (km) Brightness Sun altitude
Rises 13:32:12 0° 255° (WSW) 2,810 ? 45.8°
Reaches altitude 10° 13:34:39 10° 266° (W) 1,914 ? 45.5°
Maximum altitude 13:38:36 32° 330° (NNW) 1,027 ? 45.1°
Drops below altitude 10° 13:42:36 10° 34° (NE) 1,939 ? 44.6°
Sets 13:45:06 0° 44° (NE) 2,851 ? 44.3°
